Hamdan Hassan

Olheiro-Chefe - Al Jazira
17 Jul 2027
Sábado
Processo

Personalidade

Adaptabilidade (14) Ambição (11) Controvérsia (16) Lealdade (6) Pressão (13) Profissionalismo (10) Espírito Esportivo (16) Temperamento (16)

Perfil

Estilo de Treinamento Democrático
Licença Continental A
Determinação 8
Gestão de Pessoas 11
Motivação 13
Disciplina 7
Satisfação no Trabalho
96%
Fadiga
0%
Função Olheiro-Chefe
Salário 85.9K p/s
Contrato 14.03.2030

Desempenho

Comportamento Bom
Eficácia do Treinamento
29%
Desenvolvimento do Jogador
30%
Prevenção de Lesões
65%
Implementação Tática
30%

Eventos Recentes

Participou de uma reunião de recrutamento agora
Recomendou um alvo de transferência agora
Recomendou um alvo de transferência agora
Avaliou um jogador agora
Avaliou um jogador agora
Avaliou um jogador agora
Avaliou um jogador agora
Avaliou um jogador 7d atrás

Monitorando agora

216
Jogador Clube Status Habilidade Confiança Observado Última observação Último voto
Moussa Dembélé Al Ahli Ativo 126 / 129 40% 2 16.07.2027 -
Rafael Santos Borré River Plate Ativo 139 / 120 40% 2 16.07.2027 -
Cristian Arango San Jose Earthquakes Ativo 134 / 120 40% 1 16.07.2027 -
Mehdi Ghayedi Al Nasr Ativo 141 / 133 40% 5 15.07.2027 -
Kortney Hause Bristol Rovers Ativo 124 / 124 40% 2 15.07.2027 -
Tomáš Chorý Spartak Moscow Ativo 144 / 133 40% 1 15.07.2027 -
Luciano Gondou Krylya Sovetov Ativo 128 / 134 40% 1 15.07.2027 -
Sebastiano Luperto Cremonese Ativo 133 / 132 40% 1 15.07.2027 -
Adrián Lapeña Ceuta Ativo 119 / 119 40% 1 15.07.2027 -
Charles Pickel Sharjah Ativo 139 / 125 40% 6 13.07.2027 -
Mohamed Kanno Al-Hilal Ativo 128 / 123 40% 4 13.07.2027 -
Brodie Spencer Oxford United Ativo 128 / 134 40% 3 13.07.2027 -
Federico Viñas Toluca Ativo 121 / 143 40% 3 13.07.2027 -
Tomás Conechny Racing Club Ativo 133 / 130 40% 2 13.07.2027 -
Miguel Crespo Al-Khaleej Ativo 118 / 119 40% 2 13.07.2027 -
David Romero Parma Ativo 132 / 121 40% 1 13.07.2027 -
Fabio Gerli Modena Ativo 122 / 128 40% 1 13.07.2027 -
Fernando Gorriarán Tigres Ativo 138 / 135 40% 1 13.07.2027 -
Iqraam Rayners Mamelodi Sundowns Ativo 122 / 123 40% 3 10.07.2027 -
Marin Benko Zadar Ativo 139 / 117 40% 1 10.07.2027 -
Josh Brownhill Al-Shabab Ativo 131 / 140 40% 6 09.07.2027 -
Walid Cheddira Avellino Ativo 134 / 133 40% 2 09.07.2027 -
Karim El Berkaoui Al Dhafra Ativo 129 / 129 40% 1 09.07.2027 -
Ali Majrashi Al-Ahli Ativo 132 / 123 40% 6 08.07.2027 -
Moussa Diarra Al Wahda Ativo 142 / 121 40% 2 08.07.2027 -
Ramón Mierez Al Nasr Ativo 126 / 118 40% 2 07.07.2027 -
Florin Tănase Omonoia Ativo 118 / 138 40% 2 07.07.2027 -
Ignacio Russo Tigre Ativo 132 / 136 40% 2 07.07.2027 -
Lloyd Jones Charlton Athletic Ativo 136 / 136 40% 1 06.07.2027 -
Romano Floriani Mussolini Parma Ativo 129 / 138 40% 1 06.07.2027 -
Josh Edwards Charlton Athletic Ativo 121 / 120 40% 1 06.07.2027 -
Levi Garcia Spartak Moscow Ativo 138 / 132 40% 1 04.07.2027 -
Jaime Seoane Al-Faisaly Ativo 130 / 130 40% 4 03.07.2027 -
Ângelo Al-Nassr Ativo 135 / 145 40% 4 03.07.2027 -
Nicolás Fernández Belgrano Ativo 139 / 118 40% 2 03.07.2027 -
Adam Buksa Udinese Ativo 130 / 132 40% 1 03.07.2027 -
Giovanni Simeone Napoli Ativo 139 / 139 40% 1 03.07.2027 -
Neal Maupay Olympique de Marseille Ativo 132 / 133 40% 1 02.07.2027 -
Nahitan Nández Al-Qadisiyah Ativo 152 / 141 40% 4 30.06.2027 -
Aschraf El Mahdioui Al-Taawoun Ativo 126 / 136 40% 7 30.06.2027 -
Tomás Chancalay Minnesota United FC Ativo 132 / 131 40% 3 30.06.2027 -
Ivan Sergeev Dinamo Moscow Ativo 117 / 121 40% 2 30.06.2027 -
Sondre Tronstad Blackburn Rovers Ativo 119 / 127 40% 1 30.06.2027 -
Gennaro Borrelli Cagliari Ativo 125 / 119 40% 1 30.06.2027 -
Leandro Godoy CSKA Sofia Ativo 133 / 134 40% 2 29.06.2027 -
Federico Bonazzoli Cremonese Ativo 125 / 124 40% 1 29.06.2027 -
Bruno Barticciotto Talleres Ativo 120 / 123 40% 2 27.06.2027 -
Asier Villalibre Racing Santander Ativo 129 / 125 40% 2 27.06.2027 -
Sam Szmodics Ipswich Town Ativo 132 / 131 40% 2 25.06.2027 -
Paik Seung-Ho Birmingham Ativo 121 / 125 40% 1 25.06.2027 -
Tommaso Augello Palermo Ativo 129 / 134 40% 1 25.06.2027 -
Adryelson Al Wasl Ativo 136 / 124 40% 4 23.06.2027 -
Fashion Sakala MC Alger Ativo 117 / 111 40% 5 23.06.2027 -
Adam Armstrong Wolverhampton Ativo 137 / 132 40% 2 23.06.2027 -
Simone Trimboli Mantova Ativo 122 / 132 40% 1 23.06.2027 -
Mirlind Daku Spartak Moscow Ativo 124 / 128 40% 1 21.06.2027 -
Marco Pompetti Padova Ativo 122 / 134 40% 2 19.06.2027 -
Adam Gnezda Čerin Al Wahda Ativo 123 / 117 40% 1 19.06.2027 -
Lorenzo Carissoni Padova Ativo 125 / 123 40% 1 19.06.2027 -
Oussama Idrissi Ferencvaros Ativo 136 / 139 40% 1 19.06.2027 -
Conor Chaplin Leicester City Ativo 126 / 122 40% 1 19.06.2027 -
Jota Silva Olympiacos Ativo 145 / 122 40% 1 17.06.2027 -
Angelo Fulgini Al-Khaleej Ativo 127 / 126 40% 3 16.06.2027 -
Farid El Melali CR Belouizdad Ativo 120 / 133 40% 4 16.06.2027 -
Sebastián Villa Boca Juniors Ativo 120 / 134 40% 1 16.06.2027 -
Sebastián Driussi River Plate Ativo 124 / 139 40% 1 16.06.2027 -
Yahya Ben Khaleq Al Ain Ativo 112 / 126 65% 1 04.06.2027 Aprovar
Saviour Godwin Baniyas Ativo 126 / 128 40% 9 01.06.2027 -
Marius Marin Al Nasr Ativo 124 / 140 40% 2 01.06.2027 -
Antonio Palumbo Palermo Ativo 130 / 124 40% 1 01.06.2027 -
Evgeny Staver Rubin Ativo 127 / 129 40% 4 30.05.2027 -
Lorenzo Andrenacci Lumezzane Ativo 105 / 119 40% 1 30.05.2027 -
Alen Sherri Cagliari Ativo 116 / 125 40% 5 29.05.2027 -
Wilfried Kanga Al-Fateh Ativo 128 / 115 40% 1 29.05.2027 -
Lorenzo Palmisani Frosinone Ativo 135 / 129 40% 4 27.05.2027 -
Murphy Cooper Plymouth Argyle Ativo 114 / 118 40% 5 27.05.2027 -
Alex Bass Peterborough United Ativo 117 / 105 40% 4 27.05.2027 -
Gianmarco Vannucchi Benevento Ativo 111 / 125 40% 8 26.05.2027 -
George Wickens Lincoln City Ativo 118 / 121 40% 4 26.05.2027 -
Josh Keeley Luton Town Ativo 135 / 136 40% 2 26.05.2027 -
Alex Palmer Ipswich Town Ativo 133 / 134 40% 3 25.05.2027 -
Luca Gemello Perugia Ativo 108 / 116 40% 2 25.05.2027 -
Andrea Zaccagno Torres Ativo 112 / 108 40% 5 24.05.2027 -
Vladan Kovačević Norwich City Ativo 125 / 128 40% 4 24.05.2027 -
Bento Lokomotiv Moscow Ativo 141 / 133 40% 17 23.05.2027 -
Alessio Cragno Südtirol Ativo 126 / 123 40% 4 23.05.2027 -
Evidence Billiat Ajax Cape Town Ativo 112 / 109 40% 2 23.05.2027 -
Domenico Berardi Sassuolo Ativo 144 / 136 40% 1 23.05.2027 -
Naïs Djouahra Arouca Ativo 123 / 127 40% 3 22.05.2027 -
Lucas Bruera Carabobo Ativo 119 / 131 40% 3 20.05.2027 -
Josh Murphy Portsmouth Ativo 129 / 116 40% 3 20.05.2027 -
Wladimiro Falcone Lecce Ativo 133 / 132 40% 3 18.05.2027 -
Felipe Zenobio Tigre Ativo 123 / 128 40% 1 18.05.2027 -
Adrian Šemper Al-Fateh Ativo 133 / 129 40% 19 17.05.2027 -
Alexandr Koryakin Krasnodar Ativo 114 / 101 40% 6 16.05.2027 -
Hugo Moura Al-Fayha Ativo 115 / 122 40% 3 15.05.2027 -
Simone Scuffet Pisa Ativo 123 / 123 40% 6 15.05.2027 -
Lorenzo Montipò Venezia Ativo 143 / 134 40% 7 14.05.2027 -
Helinho Toluca Ativo 147 / 126 40% 1 13.05.2027 -
Matteo Francesconi Cesena Ativo 128 / 125 40% 1 13.05.2027 -
Samu Maccabi Netanya Ativo 119 / 120 40% 1 12.05.2027 -
John Victor Nottingham Forest Ativo 139 / 142 40% 1 12.05.2027 -
Relebohile Mofokeng Orlando Pirates Ativo 134 / 132 40% 6 11.05.2027 -
Manolo Portanova Reggiana Ativo 122 / 131 40% 2 10.05.2027 -
Simone Perilli Hellas Verona Ativo 122 / 118 40% 6 09.05.2027 -
Luan Pereira Sharjah Ativo 126 / 132 40% 4 08.05.2027 -
Bertrand Traoré Sunderland Ativo 139 / 141 40% 1 06.05.2027 -
Enzo Vázquez Central Norte Ativo 122 / 108 40% 1 04.05.2027 -
Will Mannion Charlton Athletic Ativo 119 / 109 40% 3 03.05.2027 -
Sipho Chaine Orlando Pirates Ativo 106 / 105 40% 6 01.05.2027 -
Roberto Ramírez Godoy Cruz Ativo 123 / 121 40% 1 01.05.2027 -
Maílson Al-Taawoun Ativo 134 / 126 40% 8 30.04.2027 -
Daniel Sappa San Miguel Ativo 104 / 117 40% 1 30.04.2027 -
Turki Al-Ammar Al-Qadisiyah Ativo 119 / 122 40% 6 27.04.2027 -
Stefano Gori Union Brescia Perdido 123 / 118 40% 3 27.04.2027 -
Walid Al Menhali Al Ahli Ativo 117 / 108 40% 6 25.04.2027 -
Bogdan Ovsyannikov Orenburg Ativo 101 / 105 40% 1 23.04.2027 -
Max Conway Bolton Wanderers Ativo 118 / 113 40% 1 23.04.2027 -
Leighton Clarkson Blackpool Ativo 118 / 124 40% 1 23.04.2027 -
Nicolas Schmid Portsmouth Ativo 129 / 129 40% 4 20.04.2027 -
Daniel Iversen Preston Ativo 129 / 130 40% 1 20.04.2027 -
Matías Palacios Al Ain Ativo 136 / 125 40% 2 19.04.2027 -
Nathan Trott Cardiff City Ativo 118 / 119 40% 3 19.04.2027 -
Joe Lumley Sheffield Wednesday Ativo 112 / 124 40% 2 19.04.2027 -
Mohau Nkota Al-Ettifaq Ativo 128 / 117 40% 2 19.04.2027 -
Gerónimo Rivera Al Wahda Ativo 128 / 133 40% 2 19.04.2027 -
Egil Selvik Watford Ativo 128 / 121 40% 3 15.04.2027 -
Riccardo Gagno Vicenza Ativo 129 / 125 40% 1 15.04.2027 -
Max O'Leary West Bromwich Albion Ativo 128 / 116 40% 1 12.04.2027 -
Marouan Azarkan Al Nasr Ativo 117 / 130 40% 4 10.04.2027 -
Nuno Santos Mamelodi Sundowns Ativo 135 / 117 40% 1 08.04.2027 -
Theo Bongonda Al-Faisaly Ativo 133 / 140 40% 4 05.04.2027 -
Joel Pereira Reading Ativo 105 / 114 40% 2 01.04.2027 -
Giuseppe Di Serio Spezia Ativo 125 / 122 40% 1 30.03.2027 -
Agustín Hausch Caracas Ativo 120 / 116 40% 1 30.03.2027 -
Ivan Lomaev Ufa Ativo 111 / 120 40% 5 25.03.2027 -
Pedro Rebocho Al-Khaleej Ativo 121 / 124 40% 2 24.03.2027 -
Svetoslav Vutsov Levski Ativo 131 / 124 40% 6 24.03.2027 -
Nikita Haikin Spartak Moscow Ativo 142 / 131 40% 9 18.03.2027 -
Predrag Rajković Al-Nassr Ativo 149 / 134 40% 5 17.03.2027 -
Peter Leeuwenburgh Apollon Ativo 108 / 98 40% 4 13.03.2027 -
Dominik Takáč Slovan Bratislava Ativo 134 / 134 40% 6 12.03.2027 -
Angel Zamudio CFR Cluj Ativo 124 / 104 40% 5 11.03.2027 -
Alexandr Maximenko Spartak Moscow Ativo 116 / 123 40% 7 10.03.2027 -
Camilo Durán Bloemfontein Celtic Ativo 128 / 134 40% 2 10.03.2027 -
Armstrong Oko-Flex Levski Ativo 110 / 123 40% 3 06.03.2027 -
Marios Siabanis Volos NPS Ativo 105 / 109 40% 6 03.03.2027 -
Alexis Guendouz JS Kabylie Ativo 101 / 127 40% 4 03.03.2027 -
Williams Mahlangu SuperSport United Ativo 105 / 110 40% 3 01.03.2027 -
Brandon Petersen Kaizer Chiefs Ativo 110 / 128 40% 1 25.02.2027 -
Omar Al Shamsi CSKA Moscow Ativo 151 / 128 40% 2 22.02.2027 -
Fabian Caicedo CSKA Moscow Ativo 127 / 132 40% 2 16.02.2027 -
Alexandr Selikhov Ural Ativo 125 / 112 40% 1 13.02.2027 -
Firas Ben Larbi Sharjah Ativo 123 / 120 40% 1 10.02.2027 -
Žiga Frelih NK Celje Ativo 116 / 119 40% 5 08.02.2027 -
Pedro Rocha Juventude Ativo 106 / 122 40% 2 06.02.2027 -
Mateusz Kochalski Qarabag Ativo 122 / 116 40% 7 04.02.2027 -
Cristopher Varela Deportivo La Guaira Ativo 103 / 110 40% 3 02.02.2027 -
Jordan Lotomba Bloemfontein Celtic Ativo 135 / 113 40% 3 01.02.2027 -
Valentin Atangana Al-Ahli Ativo 126 / 134 40% 4 29.01.2027 -
Kaku Al Ain Ativo 120 / 125 40% 1 29.01.2027 -
Fedor Lapoukhov CSKA Sofia Ativo 130 / 107 40% 7 26.01.2027 -
Mahamadou Doumbia Al-Ittihad Ativo 126 / 136 40% 2 22.01.2027 -
Vladimir Nazarov Pakhtakor Ativo 100 / 108 40% 1 19.01.2027 -
Suleiman Camara Slovan Bratislava Ativo 129 / 130 40% 3 09.01.2027 -
Matevž Vidovšek Olimpija Ljubljana Ativo 109 / 127 40% 8 07.01.2027 -
Markus Kuster Paralimni Ativo 101 / 123 40% 2 05.01.2027 -
Joe Rothwell Sheffield United Ativo 124 / 128 40% 1 29.12.2026 -
Ilja Vakhania Krasnodar Ativo 119 / 111 40% 1 29.12.2026 -
Kennedy Boateng Al-Fateh Ativo 120 / 115 40% 1 27.12.2026 -
Zaydou Youssouf Al-Fateh Ativo 135 / 135 40% 4 25.12.2026 -
Julio Alonso Huesca Ativo 118 / 120 40% 1 25.12.2026 -
Ondrej Duda CSKA Moscow Ativo 139 / 122 40% 2 24.12.2026 -
Hendrik Bonmann Ludogorets Ativo 121 / 131 40% 2 22.12.2026 -
Christopher Bonsu Baah Al-Qadisiyah Ativo 130 / 117 40% 2 21.12.2026 -
Caio Lucas Al Ain Ativo 136 / 122 40% 1 21.12.2026 -
Samuel Kalu Botev Plovdiv Ativo 125 / 131 40% 1 20.12.2026 -
Aljaž Ivačič DAC Dunajska Streda Ativo 114 / 102 40% 1 14.12.2026 -
Fernando Tapia Club America Ativo 123 / 115 40% 1 12.12.2026 -
Peter Olayinka Al-Wehda Ativo 115 / 125 40% 1 12.12.2026 -
Ronaldo Vásquez Sumgayit Ativo 112 / 101 40% 1 10.12.2026 -
Pablo Lara Pumas UNAM Ativo 117 / 114 40% 1 09.12.2026 -
Fabian Bredlow VfB Stuttgart Ativo 115 / 125 40% 3 05.12.2026 -
Alejandro Araque Deportivo Tachira Ativo 98 / 126 40% 3 27.11.2026 -
Valentino Lazaro Al Ain Ativo 140 / 129 40% 2 23.11.2026 -
Vasco Sousa Porto Ativo 122 / 131 40% 1 23.11.2026 -
Daniel Naumov Botev Plovdiv Ativo 97 / 107 40% 1 20.11.2026 -
Damián Puebla Orenburg Ativo 137 / 113 40% 1 18.11.2026 -
Marius Adamonis AS Trencin Ativo 104 / 101 40% 2 13.11.2026 -
Gentian Selmani Teuta Durrës Ativo 125 / 116 40% 1 13.11.2026 -
Zelimkhan Bakaev Lokomotiv Moscow Ativo 126 / 116 40% 1 10.11.2026 -
Franco Cristaldo Talleres Ativo 141 / 140 40% 1 29.10.2026 -
Joel Andersson Ludogorets Ativo 118 / 110 40% 1 20.10.2026 -
Richard Ludha MFK Skalica Ativo 100 / 123 40% 1 09.10.2026 -
Ivo Grbić Ludogorets Ativo 107 / 118 40% 1 27.09.2026 -
Álvaro Fernández Deportivo La Coruña Ativo 130 / 125 40% 4 21.09.2026 -
Lucas Arce Godoy Cruz Ativo 139 / 114 40% 1 21.09.2026 -
Musab Al-Juwayr Al-Qadisiyah Ativo 120 / 131 40% 1 19.09.2026 -
Samuel Brolin Kalmar FF Ativo 102 / 105 40% 2 18.09.2026 -
Bernard Tekpetey Ludogorets Ativo 112 / 133 40% 1 12.09.2026 -
Francisco González Metilli Belgrano Ativo 132 / 129 40% 1 12.09.2026 -
Álex Centelles Levski Ativo 137 / 121 40% 1 07.09.2026 -
Facundo Altamirano San Lorenzo Ativo 110 / 116 40% 1 03.09.2026 -
Luca Philipp TSG Hoffenheim Ativo 113 / 112 40% 2 01.09.2026 -
Bingourou Kamara FC Lorient Ativo 115 / 113 40% 2 23.08.2026 -
Žan Karničnik NK Maribor Ativo 116 / 119 40% 1 23.08.2026 -
Henrik Bjørdal Viking Ativo 115 / 119 40% 1 21.08.2026 -
Arnaud Bodart LOSC Lille Ativo 124 / 126 40% 2 17.08.2026 -
Jacob Karlstrøm Anorthosis Ativo 104 / 117 40% 1 06.08.2026 -
Leopold Zingerle RB Leipzig Ativo 106 / 106 40% 1 04.08.2026 -
Maro Katinić Sharjah Ativo 103 / 109 62% 1 03.08.2026 Aprovar
Lautaro Amadé Defensa y Justicia Ativo 103 / 113 40% 1 03.08.2026 -
Jhohan Romaña Leon Ativo 113 / 120 40% 1 02.08.2026 -
Mario Hermoso AS Roma Ativo 138 / 152 40% 1 02.08.2026 -
Juan Dinenno Pumas UNAM Ativo 131 / 139 40% 1 01.08.2026 -
Diego Rossi Monterrey Ativo 134 / 123 40% 1 01.08.2026 -